Regional Weather Roundup
Issued by NWS

Home | Current Version | Previous Version | Text Only | Print | Product List | Glossary On
Versions: 1 2 3 4 5 6 7 8 9 10 11 12 13 14 15 16 17 18 19 20 21 22 23 24 25 26 27
000
ASUS45 KSLC 251810
RWRUT

UTAH REGIONAL WEATHER ROUNDUP
NATIONAL WEATHER SERVICE SALT LAKE CITY UT
1200 PM MDT WED MAY 25 2016

UTZ001>011-023>025-251900-

NORTHERN UTAH

CITY           SKY/WX    TMP DP  RH WIND       PRES   REMARKS
BRIGHAM CITY     N/A     61  40  45 SW6G16    30.04S
DUGWAY         MOSUNNY   65  38  37 NW9       30.05F
HILL AFB       PTSUNNY   58  40  51 S7        30.05S
LOGAN          PTSUNNY   56  44  64 SW3       30.04S
OGDEN          PTSUNNY   61  44  53 W6        30.04S
PROVO AIRPORT  MOSUNNY   64  34  32 VRB5      30.03F
SALT LAKE CITY MOSUNNY   62  40  44 CALM      30.03S
VERNAL         SUNNY     63  30  28 S13G20    30.04S
WENDOVER       PTSUNNY   61  37  41 NW13      30.05F
HEBER CITY     MOSUNNY   63  32  31 SW10G17   30.03F
WEST JORDAN    CLOUDY    59  37  44 CALM      30.05S

$$

UTZ012>022-026-027-251900-

SOUTHERN/CENTRAL UTAH

CITY           SKY/WX    TMP DP  RH WIND       PRES   REMARKS
BLANDING       SUNNY     64  16  15 S7G17     30.18F
BRYCE CANYON   SUNNY     53  22  29 S13G23    30.14S
CEDAR CITY     SUNNY     65  25  22 S10G16    30.04F
DELTA          SUNNY     61  34  36 S8        30.04F
HANKSVILLE     MOSUNNY   70  23  17 E7        30.04F
MILFORD        MOSUNNY   65  25  22 SE9       30.03S
MOAB/CYNLANDS  SUNNY     70  23  17 MISG      30.01F
PRICE          MOSUNNY   59  26  28 VRB3      30.06F
ST GEORGE      PTCLDY    72  27  18 W3        29.99F
KANAB          SUNNY     66  10  11 SE8       30.09

$$

REGIONAL REPORTS     COLORADO/ARIZONA

CITY           SKY/WX    TMP DP  RH WIND       PRES   REMARKS
CRAIG, CO      MOSUNNY   63  29  27 W15G23    30.06F
GRAND JUNCTION SUNNY     66  26  22 VRB5      30.03F
RIFLE          MOSUNNY   66  24  20 W17G26    30.04F
MONTROSE       SUNNY     68  13  12 SW9G20    30.08F
CORTEZ         SUNNY     67  20  16 SW15      30.12S
PAGE, AZ       SUNNY     71  18  13 N7        30.02F
GRAND CANYON   SUNNY     61  18  18 VRB5G18   30.14S
KINGMAN        SUNNY     73  16  11 S17G26    30.00F
FLAGSTAFF      NOT AVBL

$$

REGIONAL REPORTS    NEVADA/IDAHO/WYOMING

CITY           SKY/WX    TMP DP  RH WIND       PRES   REMARKS
LAS VEGAS, NV  MOSUNNY   74  35  24 N3        29.92F
ELY            LGT RAIN  50  35  56 W12       30.09R
ELKO           MOSUNNY   57  40  52 VRB6      30.05F
POCATELLO, ID  MOSUNNY   59  45  59 SW14      30.03S
BURLEY         MOSUNNY   59  42  53 W12G20    30.03R
EVANSTON, WY   CLOUDY    53  32  44 W20G25    30.08S
ROCK SPRINGS   PTSUNNY   54  31  41 W16G25    30.05F
KEMMERER       LGT RAIN  41  36  81 W10G23    30.11R

$$




USA.gov is the U.S. government's official web portal to all federal, state and local government web resources and services.